Weather History for Cleveland, OH

Change the Weather History Date:

Monday, March 11, 2013

  Actual Average Record
Temperature  
Mean Temperature 51 °F 36 °F  
Max Temperature 62 °F 45 °F 73 °F (1977)
Min Temperature 40 °F 29 °F -3 °F (1960)
Degree Days  
Heating Degree Days 14 28  
Month to date heating degree days 339 329  
Since 1 July heating degree days 4518 4546  
Cooling Degree Days 0 0  
Month to date cooling degree days 0 0  
Year to date cooling degree days 0 0  
Moisture  
Dew Point 43 °F    
Average Humidity 68    
Maximum Humidity 100    
Minimum Humidity 36    
Precipitation  
Precipitation 0.92 in 0.09 in 0.92 in (2013)
Month to date precipitation 1.13 0.94  
Year to date precipitation 5.60 6.00  
Snow  
Snow 0.00 in 0.50 in - ()
Month to date snowfall 3.1 5.3  
Since 1 July snowfall 43.8 57.5  
Snow Depth 0.00 in    
Sea Level Pressure  
Sea Level Pressure 29.73 in    
Wind  
Wind Speed 15 mph (SSW)    
Max Wind Speed 30 mph    
Max Gust Speed 39 mph    
Visibility 8 miles    
Events Rain    
T = Trace of Precipitation, MM = Missing Value Source: NWS Daily Summary

Daily Weather History Graph

Daily Weather History Graph

Search for Another Location

Airport:

Trip Planner

Search our weather history database for the weather conditions in past years. The results will help you decide how hot, cold, wet, or windy it might be!

Date:

Astronomy

Mar. 11, 2013 Rise Set
Actual Time 7:45 AM EDT 7:29 PM EDT
Civil Twilight 7:17 AM EDT 7:57 PM EDT
Nautical Twilight 6:45 AM EDT 8:29 PM EDT
Astronomical Twilight 6:13 AM EDT 9:01 PM EDT
Moon 7:18 AM EDT (3/11) 7:41 PM EDT (3/11)
Length of Visible Light 12h 39m
Length of Day
11h 44m
Waning Crescent, 0% of the Moon is Illuminated
Mar 11
Waning Crescent
Mar 11
New
Mar 19
First Quarter
Mar 27
Full
Apr 3
Last Quarter

Hourly Weather History & Observations

Time (EDT) Temp. Windchill Dew Point Humidity Pressure Visibility Wind Dir Wind Speed Gust Speed Precip Events Conditions
12:51 AM 61.0 °F - 34.0 °F 36% 29.87 in 10.0 mi SSE 12.7 mph - N/A   Overcast
1:51 AM 61.0 °F - 35.1 °F 38% 29.86 in 10.0 mi South 17.3 mph 27.6 mph N/A   Overcast
2:51 AM 60.1 °F - 36.0 °F 41% 29.87 in 10.0 mi South 16.1 mph 25.3 mph 0.00 in Rain Light Rain
3:39 AM 57.0 °F - 39.9 °F 53% 29.85 in 10.0 mi South 17.3 mph 25.3 mph 0.00 in Rain Light Rain
3:51 AM 55.9 °F - 39.9 °F 55% 29.83 in 10.0 mi SSE 12.7 mph - 0.00 in Rain Light Rain
4:51 AM 55.0 °F - 39.9 °F 57% 29.84 in 10.0 mi South 8.1 mph - 0.00 in Rain Light Rain
5:51 AM 55.9 °F - 39.0 °F 53% 29.83 in 10.0 mi South 12.7 mph - 0.01 in Rain Light Rain
6:51 AM 51.1 °F - 44.1 °F 77% 29.86 in 8.0 mi South 17.3 mph 24.2 mph 0.10 in Rain Light Rain
7:51 AM 51.1 °F - 46.0 °F 83% 29.86 in 7.0 mi South 18.4 mph 29.9 mph 0.10 in Rain Rain
8:51 AM 51.1 °F - 46.9 °F 86% 29.87 in 10.0 mi South 15.0 mph - 0.13 in Rain Light Rain
9:51 AM 50.0 °F - 45.0 °F 83% 29.83 in 10.0 mi SE 4.6 mph - 0.01 in   Overcast
10:51 AM 50.0 °F - 44.1 °F 80% 29.83 in 10.0 mi SSE 6.9 mph - 0.01 in Rain Light Rain
11:51 AM 51.1 °F - 43.0 °F 74% 29.78 in 10.0 mi South 17.3 mph - 0.04 in Rain Light Rain
12:51 PM 53.1 °F - 43.0 °F 69% 29.74 in 10.0 mi SSE 15.0 mph 21.9 mph 0.01 in   Overcast
1:51 PM 52.0 °F - 45.0 °F 77% 29.71 in 6.0 mi South 19.6 mph 31.1 mph 0.02 in Rain Rain
2:51 PM 53.1 °F - 45.0 °F 74% 29.66 in 10.0 mi South 15.0 mph - 0.02 in Rain Light Rain
3:51 PM 54.0 °F - 46.9 °F 77% 29.61 in 10.0 mi South 19.6 mph 31.1 mph 0.00 in Rain Light Rain
4:51 PM 55.9 °F - 46.9 °F 72% 29.58 in 10.0 mi South 18.4 mph 31.1 mph 0.00 in Rain Light Rain
5:51 PM 55.0 °F - 48.0 °F 77% 29.56 in 10.0 mi South 20.7 mph 34.5 mph 0.00 in Rain Light Rain
6:18 PM 54.0 °F - 48.0 °F 80% 29.62 in 1.8 mi WSW 28.8 mph 35.7 mph 0.01 in Rain Heavy Rain
6:23 PM 51.1 °F - 46.9 °F 86% 29.62 in 3.0 mi SW 23.0 mph 35.7 mph 0.07 in Rain Rain
6:31 PM 50.0 °F - 48.0 °F 93% 29.62 in 3.0 mi WSW 17.3 mph 28.8 mph 0.18 in Rain Rain
6:41 PM 50.0 °F - 46.9 °F 89% 29.63 in 4.0 mi WSW 15.0 mph - 0.21 in Rain Rain
6:51 PM 48.9 °F - 48.0 °F 97% 29.64 in 2.5 mi SW 12.7 mph - 0.26 in Rain Rain
6:54 PM 48.9 °F - 46.9 °F 93% 29.64 in 3.0 mi SW 11.5 mph - 0.01 in Rain Rain
7:28 PM 48.9 °F - 46.9 °F 93% 29.64 in 5.0 mi SSW 9.2 mph - 0.09 in Rain Rain
7:44 PM 48.0 °F - 46.9 °F 96% 29.66 in 6.0 mi SSW 6.9 mph - 0.11 in Rain Light Rain
7:51 PM 48.0 °F - 46.9 °F 96% 29.67 in 7.0 mi SSW 5.8 mph - 0.12 in Rain Light Rain
8:20 PM 48.0 °F - 46.0 °F 93% 29.67 in 7.0 mi SW 11.5 mph - 0.08 in Rain Light Rain
8:23 PM 48.0 °F - 46.0 °F 93% 29.67 in 7.0 mi SW 8.1 mph - 0.08 in Rain Light Rain
8:51 PM 46.4 °F 38.5 °F 41.0 °F 81% 29.69 in 10.0 mi WSW 21.9 mph 29.9 mph N/A   Overcast
8:55 PM 46.0 °F 37.0 °F 39.9 °F 79% 29.70 in 10.0 mi WSW 27.6 mph 34.5 mph N/A   Overcast
9:51 PM 45.0 °F 37.1 °F 39.0 °F 80% 29.73 in 10.0 mi West 19.6 mph 28.8 mph N/A   Overcast
10:51 PM 43.0 °F 34.8 °F 36.0 °F 76% 29.76 in 10.0 mi WSW 18.4 mph - N/A   Overcast
11:51 PM 41.0 °F 32.5 °F 34.0 °F 76% 29.78 in 10.0 mi WSW 17.3 mph 26.5 mph N/A   Overcast